This is the latest recevied weather packets stored in our database for station/object OE5ERN-10. If no packets are shown the sender has not sent any weather packets the latest 10 day(s).
| Time | Temp. | Humidity | Pressure | Rain* | Wind** | Luminosity | Snow |
|---|---|---|---|---|---|---|---|
| 1777389947 | 20.56° C | 29% | 1020.6 hPa | 0 mm | - | - | - |
| 1777389047 | 21.11° C | 29% | 1020.4 hPa | 0 mm | - | - | - |
| 1777388147 | 21.11° C | 28% | 1020.5 hPa | 0 mm | - | - | - |
| 1777387247 | 21.67° C | 28% | 1020.6 hPa | 0 mm | - | - | - |
| 1777386347 | 21.67° C | 28% | 1020.6 hPa | 0 mm | - | - | - |
| 1777385447 | 21.67° C | 28% | 1020.8 hPa | 0 mm | - | - | - |
| 1777384547 | 22.22° C | 28% | 1021 hPa | 0 mm | - | - | - |
| 1777383647 | 22.78° C | 26% | 1021 hPa | 0 mm | - | - | - |
| 1777382747 | 22.78° C | 27% | 1021.1 hPa | 0 mm | - | - | - |
| 1777381847 | 22.22° C | 28% | 1021.4 hPa | 0 mm | - | - | - |
| 1777380947 | 22.78° C | 28% | 1021.5 hPa | 0 mm | - | - | - |
| 1777380047 | 22.78° C | 28% | 1021.7 hPa | 0 mm | - | - | - |
| 1777379147 | 22.78° C | 30% | 1021.8 hPa | 0 mm | - | - | - |
| 1777378247 | 22.78° C | 30% | 1021.7 hPa | 0 mm | - | - | - |
| 1777377347 | 22.78° C | 32% | 1022 hPa | 0 mm | - | - | - |
| 1777376447 | 22.78° C | 32% | 1022 hPa | 0 mm | - | - | - |
| 1777375547 | 22.22° C | 31% | 1022.1 hPa | 0 mm | - | - | - |
| 1777374647 | 23.89° C | 31% | 1022.4 hPa | 0 mm | - | - | - |
| 1777373747 | 24.44° C | 30% | 1022.6 hPa | 0 mm | - | - | - |
| 1777372847 | 24.44° C | 29% | 1022.7 hPa | 0 mm | - | - | - |
| 1777371947 | 26.11° C | 28% | 1022.7 hPa | 0 mm | - | - | - |
| 1777371047 | 27.22° C | 28% | 1022.8 hPa | 0 mm | - | - | - |
| 1777370147 | 25.56° C | 28% | 1022.7 hPa | 0 mm | - | - | - |
| 1777369247 | 23.89° C | 31% | 1022.9 hPa | 0 mm | - | - | - |
| 1777368347 | 22.78° C | 31% | 1022.8 hPa | 0 mm | - | - | - |
* Rain latest hour (hover to see other rain measurements)
** Current wind speed in m/s (hover to see current wind gust speed)